Regional Weather Roundup
Issued by NWS

Home | Current Version | Previous Version | Text Only | Print | Product List | Glossary Off
Versions: 1 2 3 4 5 6 7 8 9 10 11 12 13 14 15 16 17 18 19 20 21 22 23 24 25 26 27 28 29 30 31 32 33 34 35 36 37 38 39 40 41 42 43 44 45 46 47 48 49 50

000
ASUS43 KIND 201809
RWRIN

WEATHER ROUNDUP FOR INDIANA
NATIONAL WEATHER SERVICE INDIANAPOLIS IN
100 PM EST MON FEB 20 2017

NOTE: "FAIR" INDICATES FEW OR NO CLOUDS BELOW 12,000 FEET WITH NO
SIGNIFICANT WEATHER AND/OR OBSTRUCTIONS TO VISIBILITY.

* - STATION DOES NOT REPORT WEATHER SUCH AS PRECIPITATION OR FOG.

+ - STATION NOT QUALITY CONTROLLED BY THE NATIONAL WEATHER SERVICE.
    USE DATA WITH CAUTION...ESPECIALLY DEWPOINT AND RELATIVE
    HUMIDITY OBSERVATIONS.

INZ001>003-010>013-019-020-201900-
NORTHWEST INDIANA

CITY           SKY/WX    TMP DP  RH WIND       PRES   REMARKS
GARY /AIRPORT/ PTSUNNY   64  41  42 SE17      30.09F
KNOX *+        MOSUNNY   63  19  19 S17G24    30.12F
LA PORTE +     MOSUNNY   62  46  56 S12G17    30.12F
6HR MIN TEMP:  37; 6HR MAX TEMP:  62;

MICHIGAN CITY+ MOSUNNY   61  43  51 S9G21     30.11F
MONTICELLO +   CLOUDY    62  45  53 SE9       30.12F
6HR MIN TEMP:  41; 6HR MAX TEMP:  62;

RENSSELAER +   CLOUDY    64  45  48 SE16      30.11F
VALPARAISO     CLOUDY    66  47  50 SE15      30.11F
6HR MIN TEMP:  40; 6HR MAX TEMP:  66;


$$

LMZ046-743>745-201900-
SOUTHERN LAKE MICHIGAN

STATION/POSITION TIME  TEMP    WIND        PRES    WAVE
                       AIR SEA DIR/SP/G            HT
                 (UTC) (F)     (DEG/KT/KT) (MB)    (FT)
BURNS HARBOR     1740   62     140/ 12/ 19 1019.3F
MICHIGAN CITY    1740   60     130/ 18/ 20   N/A

$$

INZ004-005-014>016-021>024-201900-
NORTH CENTRAL INDIANA

CITY           SKY/WX    TMP DP  RH WIND       PRES   REMARKS
ELKHART        MOSUNNY   61  45  55 SE15      30.15F
GOSHEN         CLOUDY    60  41  49 S13       30.16F
6HR MIN TEMP:  35; 6HR MAX TEMP:  61;

LOGANSPORT +   CLOUDY    61  45  55 SE16      30.15F
PERU/GRISSOM   SUNNY     62  47  58 S14       30.13F
6HR MIN TEMP:  41; 6HR MAX TEMP:  62; 6HR PCP: TRACE;

ROCHESTER +    MOSUNNY   63  45  51 SE12G20   30.14F
SOUTH BEND     MOSUNNY   61  46  57 S15       30.15F
6HR MIN TEMP:  40; 6HR MAX TEMP:  61;

WARSAW +       MOSUNNY   61  45  55 SE10      30.16F

$$

INZ006>009-017-018-025>027-201900-
NORTHEAST INDIANA

CITY           SKY/WX    TMP DP  RH WIND       PRES   REMARKS
ANGOLA *+      SUNNY     57  48  72 SE9       30.18F
AUBURN +       SUNNY     59  37  44 SE7       30.19F
FORT WAYNE     PTSUNNY   62  43  49 SE14      30.18F
6HR MIN TEMP:  33; 6HR MAX TEMP:  62;

HUNTINGTON +   SUNNY     62  47  60 SE10G20   30.16F
6HR MIN TEMP:  34; 6HR MAX TEMP:  62;

KENDALLVILLE + SUNNY     59  38  45 SE10      30.18F

$$

INZ028-029-035-036-043>045-051>053-201900-
WEST CENTRAL INDIANA

CITY           SKY/WX    TMP DP  RH WIND       PRES   REMARKS
GREENCASTLE +  CLOUDY    59  48  67 SE10      30.14F
LAFAYETTE      SUNNY     63  46  54 S8        30.12F
6HR MIN TEMP:  41; 6HR MAX TEMP:  63;

TERRE HAUTE    MOSUNNY   64  50  60 S14       30.12F
6HR MIN TEMP:  37; 6HR MAX TEMP:  64;


$$

INZ030>032-037>040-046>048-054>057-064-065-201900-
CENTRAL INDIANA

CITY           SKY/WX    TMP DP  RH WIND       PRES   REMARKS
ANDERSON       SUNNY     61  45  55 SE12      30.18F
COLUMBUS       SUNNY     57  55  94 CALM      30.18F
FRANKFORT +    SUNNY     64  49  56 S14       30.16F
6HR MIN TEMP:  40; 6HR MAX TEMP:  64;

GREENWOOD *+   PTSUNNY   58  50  74 S9        30.17F
6HR MIN TEMP:  41; 6HR MAX TEMP:  59;

INDIANAPOLIS   PTSUNNY   59  46  62 SE10      30.15F
6HR MIN TEMP:  41; 6HR MAX TEMP:  59;

-EAGLE CREEK   MOSUNNY   59  45  59 S12       30.15F
6HR MIN TEMP:  40; 6HR MAX TEMP:  59;

KOKOMO +       SUNNY     61  47  59 SE16      30.16F
6HR MIN TEMP:  40; 6HR MAX TEMP:  62;

MARION +       SUNNY     61  46  57 SE14      30.17F
MT COMFORT *+  SUNNY     61  46  59 SE10      30.17F
SHELBYVILLE    MOSUNNY   62  46  55 SE9       30.16F
6HR MIN TEMP:  39; 6HR MAX TEMP:  62;

ZIONSVILLE +   MOSUNNY   60  44  56 S12       30.16F
6HR MIN TEMP:  36; 6HR MAX TEMP:  60;


$$

INZ033-034-041-042-049-050-058-059-201900-
EAST CENTRAL INDIANA

CITY           SKY/WX    TMP DP  RH WIND       PRES   REMARKS
MUNCIE         SUNNY     61  44  53 SE10      30.16F
6HR MIN TEMP:  38; 6HR MAX TEMP:  62;


$$

INZ060-061-067>069-081>083-085>088-201900-
SOUTHWEST INDIANA

CITY           SKY/WX    TMP DP  RH WIND       PRES   REMARKS
EVANSVILLE     SUNNY     67  52  58 SE8       30.13F
6HR MIN TEMP:  42; 6HR MAX TEMP:  67;

HUNTINGBURG *+ SUNNY     66  52  59 SE7       30.14F
6HR MIN TEMP:  43; 6HR MAX TEMP:  66;

WASHINGTON +   SUNNY     66  48  52 SE9       30.13F
6HR MIN TEMP:  39; 6HR MAX TEMP:  66;


$$

INZ062-063-066-070>080-084-089>092-201900-
SOUTH CENTRAL AND SOUTHEAST INDIANA

CITY           SKY/WX    TMP DP  RH WIND       PRES   REMARKS
BLOOMINGTON    MOSUNNY   61  48  62 S8        30.15F
6HR MIN TEMP:  41; 6HR MAX TEMP:  61;

MADISON *+     PTSUNNY   59  48  67 SE6       30.19F
NORTH VERNON + PTSUNNY  N/A N/A N/A E5        30.19F
SEYMOUR +      MOSUNNY   55  55 100 CALM      30.17F

$$





USA.gov is the U.S. government's official web portal to all federal, state and local government web resources and services.